Regional Weather Roundup
Issued by NWS Sterling, VA

Home | Current Version | Previous Version | Graphics & Text | Print | Product List | Glossary On
Versions: 1 2 3 4 5 6 7 8 9 10 11 12 13 14 15 16 17 18 19 20 21 22 23 24 25 26 27
000
ASUS41 KLWX 280211
RWRLWX

REGIONAL WEATHER ROUNDUP
NATIONAL WEATHER SERVICE BALTIMORE MD/WASHINGTON DC
1000 PM EDT SAT MAY 27 2017

Note: "FAIR" indicates few or no clouds below 12,000 feet
with no significant weather and/or obstructions to visibility.
 TC=TEMPERATURE CELSIUS

 * =Non NWS site. Station does not report precipitation (e.g. rain,
    snow, etc.), thunder, or fog.

DCZ001-MDZ009-015-VAZ040>042-051-053>054-280300-
WASHINGTON METRO

CITY           SKY/WX    TMP DP  RH WIND       PRES   REMARKS
WASHINGTON NAT CLOUDY    68  61  78 E5        29.92R
DULLES         CLOUDY    65  61  87 S3        29.92R
ANDREWS AFB    CLOUDY    64  59  85 NE3       29.91R
FT BELVOIR     CLOUDY    65  59  79 CALM      29.92R
QUANTICO       CLOUDY    70  62  76 NE5       29.93R
COLLEGE PARK*  MOCLDY    64  58  81 CALM      29.92R
LEESBURG*      CLOUDY    66  64  94 CALM      29.94R
MANASSAS*      CLOUDY    67  62  84 CALM      29.93R
GAITHERSBURG*  CLEAR     61  58  90 CALM      29.94R

$$

MDZ006>007-011-014-280300-
BALTIMORE METRO

CITY           SKY/WX    TMP DP  RH WIND       PRES   REMARKS
BWI AIRPORT    MOCLDY    64  62  93 E5        29.91R
MD SCIENCE CTR   N/A     66  62  87 MISG      29.91R
MARTIN STATE   CLOUDY    64  64 100 CALM      29.92R
ANNAPOLIS      PTCLDY    66  64  93 CALM      29.91R
FORT MEADE*    PTCLDY    61  59  94 CALM      29.94R

$$

MDZ012-015-019>023-280300-
MARYLAND EASTERN SHORE

CITY           SKY/WX    TMP DP  RH WIND       PRES   REMARKS
OCEAN CITY     CLOUDY    63  58  83 E6        29.92R
SALISBURY      CLOUDY    66  57  72 E5        29.90R
BAY BRIDGE AP* CLOUDY    64  61  88 CALM      29.91R
CAMBRIDGE*     CLOUDY    68  63  83 NE5       29.90R
EASTON*        MOCLDY    66  59  77 E5        29.94R

$$

MDZ017>025-280300-
SOUTHERN MARYLAND

CITY           SKY/WX    TMP DP  RH WIND       PRES   REMARKS
PATUXENT RIVER CLOUDY    69  66  90 NE5       29.89R
ST INIGOES     MOCLDY    69  64  84 NE5       29.88R
LEONARDTOWN*   CLOUDY    66  61  82 CALM      29.92R

$$

MDZ003>005-280300-
NORTH CENTRAL MARYLAND

CITY           SKY/WX    TMP DP  RH WIND       PRES   REMARKS
FREDERICK*     CLOUDY    66  66 100 CALM      29.94R
HAGERSTOWN APT PTCLDY    64  62  93 CALM      29.91R FOG
WESTMINSTER*   CLOUDY    64  63  94 CALM      29.92R FOG

$$

MDZ501>502-280300-
WESTERN MARYLAND

CITY           SKY/WX    TMP DP  RH WIND       PRES   REMARKS
OAKLAND*         N/A     59  59 100 CALM      29.97R
CUMBERLAND*    CLOUDY    64  64 100 CALM      29.96R

$$

VAZ025>031-280300-
SHENANDOAH VALLEY

CITY           SKY/WX    TMP DP  RH WIND       PRES   REMARKS
WINCHESTER*    CLOUDY    61  61 100 CALM      29.92R
FRONT ROYAL*   CLOUDY    64  63  94 CALM      29.91R
LURAY*         CLOUDY    64  63  94 N8        29.92R
NEW MARKET*    CLOUDY    65  60  85 N9        29.90R
STAUNTON*      CLOUDY    67  64  89 NE6       29.93R
WAYNESBORO*    CLOUDY    68  66  94 SE9       29.93R

$$

WVZ021-048>050-054>055-280300-
EASTERN WEST VIRGINIA PANHANDLE

CITY           SKY/WX    TMP DP  RH WIND       PRES   REMARKS
MARTINSBURG    MOCLDY    61  60  97 CALM      29.91R FOG
PETERSBURG*    CLOUDY    66  64  92 CALM      29.92F

$$

VAZ036>039-050-280300-
CENTRAL FOOTHILLS

CITY           SKY/WX    TMP DP  RH WIND       PRES   REMARKS
CHARLOTTESVILL CLOUDY    70  66  87 NE6       29.91R
CULPEPER*      CLOUDY    67  64  89 CALM      29.93R
ORANGE*        CLOUDY    64  63  94 NE3       29.90S
GORDONSVILLE*  CLOUDY    68  65  91 NE7       29.90S
WARRENTON*     CLOUDY    67  60  77 NE3       29.91R

$$

VAZ055>057-280300-
NORTH AND CENTRAL PIEDMONT

CITY           SKY/WX    TMP DP  RH WIND       PRES   REMARKS
FREDERICKSBRG* CLOUDY    70  63  78 N6        29.91R
STAFFORD*      CLOUDY    65  64  95 CALM      29.96R

$$

NCZ024-NYZ072-PAZ021-071-VAZ022-071-280300-
OTHER REGIONAL OBSERVATIONS

CITY           SKY/WX    TMP DP  RH WIND       PRES   REMARKS
NEW YORK CITY  CLOUDY    64  56  75 CALM      29.94R
PHILADELPHIA   MOCLDY    67  58  72 SW5       29.91R
PITTSBURGH     PTCLDY    66  62  87 CALM      29.90S
ROANOKE        CLOUDY    76  64  66 SW3       29.90S
RICHMOND       CLOUDY    67  63  87 W3        29.88R
RALEIGH        MOCLDY    77  67  71 SW5       29.88R

$$

ANZ530>537-280300-
MARINE OBSERVATIONS

STATION/POSITION TIME  TEMP    WIND        PRES
                       AIR SEA DIR/SP/G
                 (UTC) (F)     (DEG/KT/KT) (MB)
THOMAS PT LIGHT  0200   65 65   50/  7/  7   N/A
BALT KEY BRIDGE  0142   64      40/  5/  5 1012.7R
COVE POINT       0136   69      90/  7/  8 1012.6R
LEWISETTA        0136   69 71  140/  5/  6 1012.0R
SOLOMONS ISLAND  0136   70 68   30/  5/  5   N/A
PINEY POINT      0136          150/  6/  7   N/A

$$





USA.gov is the U.S. government's official web portal to all federal, state and local government web resources and services.